Avalon, CA

9:09 AM PDT on April 27, 2017 (GMT -0700)
Catalina

Weather History for KAVX - December, 2012

Change the Weather History Date:

Wednesday, December 5, 2012

  Actual Average Record
Temperature  
Mean Temperature 60 °F -  
Max Temperature 66 °F 58 °F 75 °F (2007)
Min Temperature 55 °F 48 °F 44 °F (2004)
Degree Days  
Heating Degree Days 4    
Growing Degree Days 10 (Base 50)    
Moisture  
Dew Point 51 °F    
Average Humidity 76    
Maximum Humidity 100    
Minimum Humidity 48    
Precipitation  
Precipitation 0.00 in - - ()
Sea Level Pressure  
Sea Level Pressure 30.07 in    
Wind  
Wind Speed 7 mph (WNW)    
Max Wind Speed 12 mph    
Max Gust Speed -    
Visibility 7 miles    
Events Fog    
Averages and records for this station are not official NWS values.
T = Trace of Precipitation, MM = Missing Value Source: NWS Daily Summary

Daily Weather History Graph

Daily Weather History Graph

Search for Another Location

Airport or City:

Trip Planner

Search our weather history database for the weather conditions in past years. The results will help you decide how hot, cold, wet, or windy it might be!

Date:

Astronomy

Dec. 05, 2012 Rise Set
Actual Time 6:43 AM PST 4:45 PM PST
Civil Twilight 6:16 AM PST 5:13 PM PST
Nautical Twilight 5:45 AM PST 5:43 PM PST
Astronomical Twilight 5:15 AM PST 6:13 PM PST
Moon 11:24 PM PST (12/5) 11:22 AM PST (12/5)
Length of Visible Light 10h 57m
Length of Day
10h 02m
Waning Gibbous, 58% of the Moon is Illuminated
Dec 5
Waning Gibbous
Dec 6
Last Quarter
Dec 13
New
Dec 19
First Quarter
Dec 28
Full

Hourly Weather History & Observations

Time (PST) Temp. Dew Point Humidity Pressure Visibility Wind Dir Wind Speed Gust Speed Precip Events Conditions
12:51 AM 57.9 °F 46.0 °F 65% 30.14 in 10.0 mi WNW 8.1 mph - N/A   Clear
1:51 AM 59.0 °F 46.0 °F 62% 30.13 in 10.0 mi NW 5.8 mph - N/A   Clear
2:51 AM 60.1 °F 46.0 °F 60% 30.11 in 10.0 mi NW 6.9 mph - N/A   Clear
3:51 AM 61.0 °F 44.1 °F 54% 30.10 in 10.0 mi NW 5.8 mph - N/A   Clear
4:51 AM 59.0 °F 46.9 °F 64% 30.10 in 10.0 mi WNW 8.1 mph - N/A   Clear
6:51 AM 61.0 °F 41.0 °F 48% 30.12 in 10.0 mi WNW 6.9 mph - N/A   Clear
7:51 AM 60.1 °F 44.1 °F 55% 30.13 in 10.0 mi West 4.6 mph - N/A   Clear
8:51 AM 63.0 °F 45.0 °F 52% 30.12 in 10.0 mi West 3.5 mph - N/A   Clear
9:51 AM 64.0 °F 46.9 °F 54% 30.13 in 10.0 mi NNW 4.6 mph - N/A   Clear
10:51 AM 66.0 °F 52.0 °F 60% 30.11 in 10.0 mi NNW 4.6 mph - N/A   Clear
11:51 AM 64.0 °F 52.0 °F 65% 30.07 in 10.0 mi West 6.9 mph - N/A   Clear
12:48 PM 59.0 °F 55.4 °F 88% 30.09 in 7.0 mi WSW 8.1 mph - N/A   Partly Cloudy
12:51 PM 57.9 °F 55.9 °F 93% 30.07 in 7.0 mi WSW 6.9 mph - N/A   Clear
1:00 PM 59.0 °F 55.4 °F 88% 30.09 in 7.0 mi WSW 6.9 mph - N/A   Partly Cloudy
1:51 PM 63.0 °F 53.1 °F 70% 30.03 in 10.0 mi West 8.1 mph - N/A   Clear
2:51 PM 63.0 °F 54.0 °F 72% 30.01 in 10.0 mi WNW 8.1 mph - N/A   Clear
4:51 PM 59.0 °F 51.1 °F 75% 30.02 in 10.0 mi NW 11.5 mph - N/A   Clear
5:51 PM 59.0 °F 54.0 °F 83% 30.02 in 10.0 mi WNW 11.5 mph - N/A   Clear
6:51 PM 57.9 °F 55.0 °F 90% 30.02 in 10.0 mi NW 9.2 mph - N/A   Clear
7:21 PM 55.4 °F 55.4 °F 100% 30.05 in 3.0 mi WNW 8.1 mph - N/A   Partly Cloudy
7:34 PM 55.4 °F 55.4 °F 100% 30.06 in 1.2 mi WNW 9.2 mph - N/A   Scattered Clouds
7:51 PM 55.9 °F 55.0 °F 97% 30.04 in 0.2 mi West 6.9 mph - N/A Fog Fog
8:51 PM 55.9 °F 55.0 °F 97% 30.03 in 0.5 mi WNW 8.1 mph - N/A Fog Fog
9:51 PM 57.0 °F 55.9 °F 96% 30.03 in 0.2 mi WNW 11.5 mph - N/A Fog Fog
10:51 PM 57.0 °F 57.0 °F 100% 30.02 in 0.2 mi WNW 9.2 mph - N/A Fog Fog
11:51 PM 57.0 °F 57.0 °F 100% 30.01 in 0.2 mi WNW 8.1 mph - N/A Fog Fog